"TOA5","AWS1","CR1000","7964","CR1000.Std.14","CPU:AWS1_114.CR1","64363","TBL110"
"TIMESTAMP","RECORD","Wind_spd_WVc(1)","Wind_spd_WVc(2)","Air_Temp_Avg","Humidity_Avg","SW_upper_Wm2_Avg","Rain_Tot","Press_Avg","Issui_Tot","Depth_cm","SR50A_Raw","Quality","Ground_Temp_Avg(1)","Ground_Temp_Avg(2)","SW_lower_Wm2_Avg","Albedo_Avg","SWC_per(1)","SWC_per(2)","Period(1)","Period(2)"
"TS","RN","","","","","","","","","","","","","","","","","","",""
"","","WVc","WVc","Avg","Avg","Avg","Tot","Avg","Tot","Smp","Smp","Smp","Avg","Avg","Avg","Avg","Smp","Smp","Smp","Smp"
"2016-08-16 00:00:00",248893,0.115,212.7,15.85,100,0,0,860.5002,0,-3.471,3.125,204,21.26,21.57,0.6745383,0,48.05,53.67,32.81,34.19
"2016-08-16 00:10:00",248894,0.147,209.5,15.85,100,0,0,860.5255,0,-3.556,3.127,203,21.24,21.54,0.7162233,0,48.05,53.67,32.81,34.19
"2016-08-16 00:20:00",248895,0.198,207.5,15.71,100,0,0,860.5823,0,-3.688,3.129,203,21.17,21.54,0.7503291,0,48.05,53.73,32.81,34.21
"2016-08-16 00:30:00",248896,0.37,193.8,15.42,100,0,0,860.5361,0,-3.592,3.129,202,21.15,21.54,0.5873788,0,48.11,53.73,32.82,34.21
"2016-08-16 00:40:00",248897,0.39,188.1,15.39,100,0,0,860.4139,0,-3.743,3.13,197,21.11,21.56,0.6214847,0,48.11,53.73,32.82,34.21
"2016-08-16 00:50:00",248898,0.304,172.6,15.52,100,0,0,860.5361,0,-3.9,3.132,196,21.1,21.59,0.8109618,0,48.11,53.73,32.82,34.21
"2016-08-16 01:00:00",248899,0.237,192.1,15.27,100,0,0,860.3318,0,-3.797,3.131,202,21.07,21.54,0.5381148,0,48.05,53.73,32.81,34.21
"2016-08-16 01:10:00",248900,0.183,186.2,15.46,100,0,0,860.3297,0,-3.621,3.126,203,21.07,21.54,1.121704,0,48.11,53.78,32.82,34.22
"2016-08-16 01:20:00",248901,0.049,293.7,16.06,100,0,0,860.3297,0,-4.046,3.132,192,21.02,21.54,1.512027,0,48.05,53.73,32.81,34.21
"2016-08-16 01:30:00",248902,0.406,205.9,15.63,100,0,0,860.3297,0,-3.991,3.131,182,21.02,21.54,0.8033827,0,48.11,53.73,32.82,34.21
"2016-08-16 01:40:00",248903,0.206,188.7,15.64,100,0,0,860.3486,0,-3.942,3.131,182,21.01,21.54,0.7654873,0,48.05,53.78,32.81,34.22
"2016-08-16 01:50:00",248904,0.207,186.2,15.61,100,0,0,860.3318,0,-4.099,3.133,196,21.01,21.52,0.8829631,0,48.05,53.73,32.81,34.21
"2016-08-16 02:00:00",248905,0.432,187.7,15.37,100,0,0,860.3297,0,-3.876,3.132,181,20.99,21.5,0.6593801,0,48.05,53.78,32.81,34.22
"2016-08-16 02:10:00",248906,0.154,187.7,15.4,100,0,0,860.3297,0,-4.099,3.133,195,20.9,21.49,0.8223304,0,48.05,53.78,32.81,34.22
"2016-08-16 02:20:00",248907,0.013,199.3,15.72,100,0,0,860.3297,0,-4.965,3.14,194,20.91,21.5,1.440026,0,48.11,53.78,32.82,34.22
"2016-08-16 02:30:00",248908,0.131,196.9,15.53,100,0,0,860.3297,0,-4.36,3.136,195,20.85,21.5,0.7995932,0,48.05,53.78,32.81,34.22
"2016-08-16 02:40:00",248909,0.402,192,15.36,100,0,0,860.3297,0,-4.366,3.137,194,20.83,21.47,0.7579082,0,48.05,53.78,32.81,34.22
"2016-08-16 02:50:00",248910,0.425,189.5,15.28,100,0,0,860.3297,0,-4.16,3.135,193,20.84,21.45,0.6631697,0,48.11,53.78,32.82,34.22
"2016-08-16 03:00:00",248911,0.315,189.8,15.31,100,0,0,860.3297,0,-4.317,3.137,189,20.83,21.44,0.7616977,0,48.05,53.84,32.81,34.23
"2016-08-16 03:10:00",248912,0.287,187.3,15.23,100,0,0,860.3171,0,-4.396,3.138,188,20.77,21.38,0.5911684,0,48.05,53.84,32.81,34.23
"2016-08-16 03:20:00",248913,0.277,179.6,15.33,100,0,0,860.1801,0,-4.409,3.136,188,20.75,21.37,0.9473853,0,48.05,53.84,32.81,34.23
"2016-08-16 03:30:00",248914,0.15,178.4,15.61,100,0,0,860.3254,0,-4.209,3.135,194,20.72,21.37,0.9587538,0,48.05,53.84,32.81,34.23
"2016-08-16 03:40:00",248915,0.357,195.6,15.46,100,0,0,860.3276,0,-4.456,3.136,176,20.67,21.39,0.7806454,0,48.11,53.84,32.82,34.23
"2016-08-16 03:50:00",248916,0.303,188.8,15.45,100,0,0,860.3297,0,-4.106,3.134,189,20.68,21.42,0.735171,0,48.05,53.84,32.81,34.23
"2016-08-16 04:00:00",248917,0.288,198.1,15.51,100,0,0,860.3297,0,-4.202,3.134,200,20.66,21.43,0.8564363,0,48.05,53.84,32.81,34.23
"2016-08-16 04:10:00",248918,0.417,186.4,15.42,100,0,0,860.3297,0,-4.311,3.136,191,20.67,21.37,0.6669592,0,48.11,53.9,32.82,34.25
"2016-08-16 04:20:00",248919,0.448,193.9,15.39,100,0,0,860.3297,0,-4.209,3.135,189,20.67,21.36,0.6972755,0,48.05,53.9,32.81,34.25
"2016-08-16 04:30:00",248920,0.421,192.4,15.44,100,0,0,860.3297,0,-4.155,3.134,195,20.6,21.36,0.7238023,0,48.05,53.9,32.81,34.25
"2016-08-16 04:40:00",248921,0.45,187.5,15.43,100,0,0,860.3297,0,-4.082,3.134,189,20.57,21.34,0.7124337,0,48.11,53.9,32.82,34.25
"2016-08-16 04:50:00",248922,0.356,185.9,15.36,100,0,0,860.3297,0,-3.647,3.13,190,20.57,21.32,0.651801,0,48.05,53.9,32.81,34.25
"2016-08-16 05:00:00",248923,0.529,184.5,15.29,100,0,0,860.3297,0,-3.49,3.128,194,20.5,21.32,0.6252743,0,48.11,53.9,32.82,34.25
"2016-08-16 05:10:00",248924,0.228,192.1,15.89,100,0.1100479,0,860.3297,0,-3.931,3.129,192,20.52,21.32,1.375603,1.318,48.11,53.9,32.82,34.25
"2016-08-16 05:20:00",248925,0.179,183.3,15.95,100,2.421055,0,860.3276,0,-3.779,3.128,200,20.49,21.33,1.254338,0.698,48.11,53.9,32.82,34.25
"2016-08-16 05:30:00",248926,0.351,179.8,15.74,100,6.492828,0,860.3297,0,-3.628,3.127,200,20.47,21.28,1.500658,0.237,48.11,53.95,32.82,34.26
"2016-08-16 05:40:00",248927,0.237,185.4,15.96,100,11.6022,0,860.3297,0,-3.937,3.13,185,20.41,21.28,2.220671,0.194,48.11,53.95,32.82,34.26
"2016-08-16 05:50:00",248928,0.488,195.3,15.83,100,16.04735,0,860.3297,0,-3.882,3.129,185,20.41,21.28,2.349515,0.146,48.11,53.95,32.82,34.26
"2016-08-16 06:00:00",248929,0.416,188.7,15.86,100,22.26899,0,860.3297,0,-3.732,3.128,198,20.39,21.28,3.30448,0.148,48.11,53.95,32.82,34.26
"2016-08-16 06:10:00",248930,0.182,191.8,16.15,100,42.0501,0,860.3297,0,-3.966,3.127,186,20.4,21.27,8.048985,0.188,48.11,53.95,32.82,34.26
"2016-08-16 06:20:00",248931,0,0,16.39,100,91.74461,0,860.3297,0,-3.555,3.123,195,20.34,21.25,18.89844,0.216,48.11,53.95,32.82,34.26
"2016-08-16 06:30:00",248932,0,0,16.91,100,75.04876,0,860.3423,0,-3.713,3.118,199,20.32,21.22,16.84451,0.257,48.11,53.95,32.82,34.26
"2016-08-16 06:40:00",248933,0,0,17.81,100,64.81824,0,860.5381,0,-3.961,3.119,184,20.32,21.2,16.12829,0.277,48.11,53.95,32.82,34.26
"2016-08-16 06:50:00",248934,0,0,17.85,99.6,83.17265,0,860.4266,0,-3.906,3.118,180,20.31,21.2,14.62384,0.2,48.05,53.95,32.81,34.26
"2016-08-16 07:00:00",248935,0.024,2.529,18.23,97.7,47.60359,0,860.4076,0,-3.963,3.116,197,20.25,21.19,16.25334,0.342,48.11,54.01,32.82,34.27
"2016-08-16 07:10:00",248936,0,0,18.27,97.2,63.03782,0,860.3907,0,-3.272,3.11,194,20.27,21.13,18.14432,0.299,48.05,54.01,32.81,34.27
"2016-08-16 07:20:00",248937,0.036,28.1,18.77,89.6,79.25024,0,860.4118,0,-3.671,3.109,195,20.29,21.11,19.20918,0.273,48.05,54.01,32.81,34.27
"2016-08-16 07:30:00",248938,0.423,22.02,19.09,79.64,56.41136,0,860.5002,0,-3.472,3.108,191,20.31,21.15,20.69089,0.371,48.05,54.01,32.81,34.27
"2016-08-16 07:40:00",248939,0.527,12.98,19.06,79.36,54.10035,0,860.4813,0,-3.703,3.11,185,20.31,21.15,21.47533,0.398,48.11,54.01,32.82,34.27
"2016-08-16 07:50:00",248940,0.727,19.52,19.13,80.3,68.01749,0,860.3718,0,-3.806,3.111,196,20.29,21.12,22.08545,0.349,48.05,54.01,32.81,34.27
"2016-08-16 08:00:00",248941,0.805,0.25,19.21,79.79,447.9855,0,860.3718,0,-3.846,3.11,190,20.26,21.1,28.78914,0.068,48.11,54.01,32.82,34.27
"2016-08-16 08:10:00",248942,0.111,51.04,19.75,79.38,558.3085,0,860.4307,0,-4.006,3.109,186,20.28,21.09,47.51705,0.085,48.05,54.01,32.81,34.27
"2016-08-16 08:20:00",248943,0.326,175.9,20.35,78.6,603.3614,0,860.3297,0,-4.077,3.106,186,20.24,21.09,59.46169,0.098,48.11,54.01,32.82,34.27
"2016-08-16 08:30:00",248944,0.457,105.6,20.6,77.38,582.7195,0,860.3257,0,-3.932,3.103,192,20.23,21.09,61.23519,0.104,48.11,54.01,32.82,34.27
"2016-08-16 08:40:00",248945,0.07,116,21.07,75.33,331.9557,0,860.3096,0,-4.618,3.108,186,20.22,21.06,51.62492,0.171,48.11,54.01,32.82,34.27
"2016-08-16 08:50:00",248946,0.063,121.8,20.83,76.46,257.5082,0,860.2728,0,-4.14,3.105,178,20.23,20.98,36.62591,0.137,48.11,54.01,32.82,34.27
"2016-08-16 09:00:00",248947,0.156,33.77,20.86,77.74,493.6986,0,860.2189,0,-4.235,3.105,175,20.23,21.01,49.7832,0.104,48.05,54.01,32.81,34.27
"2016-08-16 09:10:00",248948,0.502,30.74,21.16,73.51,758.5762,0,860.2194,0,-4.147,3.103,193,20.23,21.02,80.21322,0.106,48.11,53.95,32.82,34.26
"2016-08-16 09:20:00",248949,0.358,18.77,21.59,72.59,789.8062,0,860.0432,0,-3.969,3.099,190,20.23,21,86.10595,0.109,48.16,53.95,32.84,34.26
"2016-08-16 09:30:00",248950,0.12,85.8,22.15,70.43,811.6782,0,859.8481,0,-4.118,3.097,184,20.21,20.99,87.04575,0.107,48.11,54.01,32.82,34.27
"2016-08-16 09:40:00",248951,0.392,353.6,22.23,70.67,839.4492,0,859.742,0,-4.046,3.097,187,20.19,20.95,89.77039,0.107,48.11,54.01,32.82,34.27
"2016-08-16 09:50:00",248952,0.597,22.82,22.17,70.26,868.3193,0,859.7158,0,-3.911,3.096,185,20.18,20.85,94.60307,0.109,48.11,54.01,32.82,34.27
"2016-08-16 10:00:00",248953,0.744,13.27,22.16,72.1,926.3417,0,859.6881,0,-3.661,3.092,194,20.18,20.87,106.5221,0.115,48.11,54.01,32.82,34.27
"2016-08-16 10:10:00",248954,0.702,28.7,22.41,72.3,979.1603,0,859.686,0,-3.402,3.09,182,20.16,20.87,118.3967,0.121,48.11,54.01,32.82,34.27
"2016-08-16 10:20:00",248955,0.484,349,22.74,73.08,884.142,0,859.5233,0,-4.375,3.098,189,20.1,20.86,106.6662,0.118,48.05,54.01,32.81,34.27
"2016-08-16 10:30:00",248956,0.265,139.3,22.44,75.65,381.3057,0,859.4831,0,-3.935,3.096,189,20.13,20.81,41.0569,0.104,48.05,54.01,32.81,34.27
"2016-08-16 10:40:00",248957,0.135,349.2,22.13,77.07,330.0651,0,859.4825,0,-3.37,3.091,181,20.25,20.83,37.65532,0.111,48.05,53.95,32.81,34.26
"2016-08-16 10:50:00",248958,0.179,229.8,22.43,76.05,741.8104,0,859.4391,0,-3.391,3.088,205,20.28,20.84,100.3142,0.126,48.05,54.01,32.81,34.27
"2016-08-16 11:00:00",248959,0.31,167.7,23.2,72.86,1050.271,0,859.3361,0,-4.626,3.096,205,20.36,20.8,147.371,0.14,48,54.01,32.8,34.27
"2016-08-16 11:10:00",248960,0.268,163.7,23.97,70.2,949.7878,0,859.0992,0,-4.497,3.09,187,20.42,20.79,130.8447,0.136,48.05,54.01,32.81,34.27
"2016-08-16 11:20:00",248961,0.231,247.7,24.45,68.66,888.8544,0,858.9092,0,-4.718,3.093,192,20.47,20.8,117.1171,0.124,48.05,53.95,32.81,34.26
"2016-08-16 11:30:00",248962,0.422,42.84,24,68.87,854.3978,0,858.7327,0,-3.649,3.085,198,20.58,20.8,115.8227,0.131,48,53.95,32.8,34.26
"2016-08-16 11:40:00",248963,0.489,317.3,23.49,69.68,478.3346,0,858.7291,0,-3.899,3.092,225,20.63,20.79,57.33487,0.107,48,53.95,32.8,34.26
"2016-08-16 11:50:00",248964,0.226,283.1,22.75,73.84,210.0363,0,858.7255,0,-3.975,3.095,228,20.74,20.77,22.20947,0.105,48,53.95,32.8,34.26
"2016-08-16 12:00:00",248965,0.064,218.9,22.69,75.27,380.6547,0,858.7455,0,-3.696,3.09,203,20.81,20.75,51.93446,0.133,48,54.01,32.8,34.27
"2016-08-16 12:10:00",248966,0.439,331.5,23.59,69.85,875.2742,0,858.7415,0,-4.244,3.088,187,20.93,20.79,132.1022,0.147,48,54.01,32.8,34.27
"2016-08-16 12:20:00",248967,0.228,286.9,23.58,70.51,363.1845,0,858.685,0,-3.814,3.09,204,21.02,20.78,44.40191,0.121,47.95,54.01,32.78,34.27
"2016-08-16 12:30:00",248968,0.233,317.1,22.67,73.94,217.8999,0,858.5268,0,-3.892,3.096,212,21.1,20.73,23.17274,0.105,47.95,54.01,32.78,34.27
"2016-08-16 12:40:00",248969,0.034,293.7,22.38,75.56,176.1594,0,858.5886,0,-4.337,3.098,208,21.17,20.75,18.99656,0.108,47.95,54.01,32.78,34.27
"2016-08-16 12:50:00",248970,0.063,168.2,22.45,77.04,70.19394,0,858.7783,0,-3.526,3.092,252,21.26,20.74,3.982749,0.042,47.95,54.01,32.78,34.27
"2016-08-16 13:00:00",248971,0.018,129.7,21.75,83.1,55.11023,0.5,858.7751,0,-2.703,3.09,247,21.35,20.71,4.339012,0.062,47.95,54.01,32.78,34.27
"2016-08-16 13:10:00",248972,0.032,139.8,20.87,98.3,162.9769,0,858.7862,0,-2.24,3.086,235,21.42,20.71,19.4479,0.119,47.95,54.01,32.78,34.27
"2016-08-16 13:20:00",248973,0.108,179.2,21.05,99,278.7435,0,858.7846,0,-2.249,3.087,218,21.52,20.71,35.47388,0.127,47.95,54.01,32.78,34.27
"2016-08-16 13:30:00",248974,0.128,168.2,20.74,97.8,150.5456,0,858.8029,0,-3.008,3.095,193,21.57,20.76,19.36834,0.129,47.95,53.95,32.78,34.26
"2016-08-16 13:40:00",248975,0.361,152.9,20.51,100,162.9063,0.5,858.8106,0,-3.408,3.1,201,21.56,20.79,21.6307,0.133,47.89,54.01,32.77,34.27
"2016-08-16 13:50:00",248976,0.225,189.5,20.72,100,272.5377,0,858.7886,0,-3.485,3.098,196,21.68,20.84,36.24696,0.133,47.89,53.95,32.77,34.26
"2016-08-16 14:00:00",248977,0.129,194.4,21.14,96.2,267.7624,0,858.622,0,-3.388,3.095,201,21.65,20.84,35.89832,0.134,47.89,54.01,32.77,34.27
"2016-08-16 14:10:00",248978,0.063,161.7,21.49,97.8,300.4898,0,858.5748,0,-2.788,3.089,187,21.77,20.84,39.65376,0.132,47.89,54.01,32.77,34.27
"2016-08-16 14:20:00",248979,0.097,172.3,21.77,91.1,412.8605,0,858.5499,0,-2.624,3.084,196,21.74,20.81,52.92473,0.128,47.89,54.01,32.77,34.27
"2016-08-16 14:30:00",248980,0.035,145,22.3,87.4,564.1057,0,858.3118,0,-4.218,3.095,191,21.83,20.83,64.88831,0.119,47.89,53.95,32.77,34.26
"2016-08-16 14:40:00",248981,0.282,141.7,22.89,80.6,490.8924,0,858.1523,0,-4.019,3.094,195,21.84,20.83,52.05313,0.107,47.84,54.01,32.76,34.27
"2016-08-16 14:50:00",248982,0.378,193.7,22.29,84.3,222.5877,0,857.9207,0,-4.495,3.102,210,21.87,20.82,25.07918,0.113,47.84,54.01,32.76,34.27
"2016-08-16 15:00:00",248983,0.151,213.3,22.47,82.3,517.3629,0,857.7718,0,-4.17,3.095,202,21.86,20.86,36.65244,0.085,47.89,54.01,32.77,34.27
"2016-08-16 15:10:00",248984,0.058,219.4,22.77,79.95,192.1712,0,857.7727,0,-4.379,3.097,213,21.9,20.89,22.4265,0.117,47.89,54.01,32.77,34.27
"2016-08-16 15:20:00",248985,0.162,338.2,22.75,82.8,217.5648,0,857.7468,0,-3.764,3.092,201,21.98,20.89,26.36763,0.121,47.84,54.01,32.76,34.27
"2016-08-16 15:30:00",248986,0.094,350,22.8,81.2,231.7885,0,857.5516,0,-4.592,3.097,207,22.02,20.86,31.66919,0.136,47.84,54.01,32.76,34.27
"2016-08-16 15:40:00",248987,0.089,9.34,23.03,79.47,103.6652,0,857.5892,0,-4.099,3.095,226,22.06,20.84,11.81579,0.113,47.84,54.01,32.76,34.27
"2016-08-16 15:50:00",248988,0.069,292.7,22.28,85.2,98.08415,0,857.55,0,-3.933,3.095,214,22.06,20.86,11.3421,0.115,47.84,54.01,32.76,34.27
"2016-08-16 16:00:00",248989,0.06,317.5,22.29,87.7,94.98316,0,857.6862,0,-3.64,3.094,198,22.13,20.88,11.668,0.122,47.84,54.01,32.76,34.27
"2016-08-16 16:10:00",248990,0.058,350.7,22.06,88.2,122.731,0,857.7219,0,-3.711,3.094,209,22.19,20.87,16.68156,0.136,47.84,54.01,32.76,34.27
"2016-08-16 16:20:00",248991,0.172,24.98,22.12,86.8,132.6274,0,857.6992,0,-3.527,3.092,228,22.17,20.85,18.93255,0.143,47.84,54.01,32.76,34.27
"2016-08-16 16:30:00",248992,0.716,50.36,22.32,83.5,175.1216,0,857.6212,0,-4.766,3.103,204,22.25,20.85,25.76888,0.147,47.84,54.01,32.76,34.27
"2016-08-16 16:40:00",248993,0.568,59.92,22.56,81.4,182.4045,0,857.6582,0,-6.213,3.116,186,22.26,20.87,26.2691,0.142,47.84,54.01,32.76,34.27
"2016-08-16 16:50:00",248994,0.418,152.9,22.04,86.6,50.18186,0,857.7127,0,-3.043,3.091,222,22.23,20.92,5.263672,0.096,47.84,54.01,32.76,34.27
"2016-08-16 17:00:00",248995,0.117,295,21.22,99.5,7.872358,0,857.7878,0,-4.099,3.103,185,22.23,20.97,0.7465395,0.1,47.79,54.01,32.74,34.27
"2016-08-16 17:10:00",248996,0.318,7.685,20.73,100,6.433874,1,857.8432,0,-3.12,3.097,188,22.25,20.98,0.7162232,0.112,47.84,54.01,32.76,34.27
"2016-08-16 17:20:00",248997,0.158,88.4,20.39,100,5.620306,0.5,858.051,0,-2.874,3.096,184,22.35,21,1.148231,0.206,47.79,54.01,32.74,34.27
"2016-08-16 17:30:00",248998,0.325,95,20.12,100,8.418667,0,858.0756,0,-2.627,3.095,185,22.37,21.02,1.610555,0.191,47.79,54.01,32.74,34.27
"2016-08-16 17:40:00",248999,0.465,322.7,20.2,100,9.01214,1.5,858.2023,0,-2.986,3.098,213,22.37,21.02,2.239619,0.248,47.84,54.01,32.76,34.27
"2016-08-16 17:50:00",249000,0.391,71.7,20,100,9.452332,0.5,858.1139,0,-3.272,3.101,190,22.37,20.99,2.019825,0.215,47.89,54.01,32.77,34.27
"2016-08-16 18:00:00",249001,0.263,214.7,19.93,100,4.665246,0,858.274,0,-2.556,3.095,190,22.37,20.98,1.538554,0.342,47.95,54.01,32.78,34.27
"2016-08-16 18:10:00",249002,0.295,345.3,20.04,98.5,4.244706,0,858.3077,0,-3.24,3.1,181,22.37,21.03,1.932666,0.456,48.11,54.01,32.82,34.27
"2016-08-16 18:20:00",249003,0.41,231.1,19.92,99.6,2.747268,0,858.434,0,-3.369,3.104,195,22.38,21.06,1.477921,0.535,48.16,54.01,32.84,34.27
"2016-08-16 18:30:00",249004,0.446,4.953,19.62,100,1.627137,0,858.5541,0,-3.416,3.104,190,22.37,21.11,0.8450677,0.521,48.32,54.01,32.88,34.27
"2016-08-16 18:40:00",249005,0.476,47.4,19.86,100,1.017943,0,858.5414,0,-3.799,3.107,186,22.38,21.1,1.159599,1.293,48.32,54.01,32.88,34.27
"2016-08-16 18:50:00",249006,0.062,249.6,19.82,100,0.1336296,0,858.4424,0,-4.014,3.11,182,22.41,21.1,0.8223304,1.358,48.43,54.07,32.9,34.29
"2016-08-16 19:00:00",249007,0,0,19.74,100,0,0,858.3077,0,-3.934,3.109,187,22.4,21.11,0.6821174,0,48.48,54.01,32.92,34.27
"2016-08-16 19:10:00",249008,0.114,277.4,19.63,100,0,0,858.3077,0,-3.839,3.109,188,22.34,21.14,0.5608521,0,48.48,54.01,32.92,34.27
"2016-08-16 19:20:00",249009,0,0,19.62,100,0,0,858.3077,0,-4.197,3.112,196,22.32,21.2,0.4736926,0,48.48,54.07,32.92,34.29
"2016-08-16 19:30:00",249010,0.115,24.43,19.7,100,0.08646623,0,858.3077,0,-4.197,3.112,192,22.3,21.24,0.4395868,0.755,48.54,54.12,32.93,34.3
"2016-08-16 19:40:00",249011,0.042,30.16,19.64,100,0,0,858.2529,0,-4.46,3.115,174,22.32,21.21,0.4016913,0,48.54,54.12,32.93,34.3
"2016-08-16 19:50:00",249012,0,0,19.56,100,0.0471634,0,858.2824,0,-4.253,3.113,185,22.32,21.19,0.5343253,0.53,48.54,54.18,32.93,34.32
"2016-08-16 20:00:00",249013,0.013,69.75,19.56,100,0.05109369,0,858.3203,0,-4.046,3.111,188,22.32,21.19,0.3031633,0.386,48.59,54.24,32.95,34.33
"2016-08-16 20:10:00",249014,0.058,121.8,19.54,100,0.03144227,0,858.3793,0,-4.117,3.111,192,22.33,21.19,0.2387411,0.177,48.59,54.24,32.95,34.33
"2016-08-16 20:20:00",249015,0,0,19.6,100,0,0,858.5562,0,-4.253,3.113,182,22.25,21.2,0.231162,0,48.59,54.29,32.95,34.34
"2016-08-16 20:30:00",249016,0.038,94.6,19.59,100,0.02751198,0,858.5519,0,-4.333,3.114,188,22.24,21.21,0.2576888,0.161,48.59,54.35,32.95,34.36
"2016-08-16 20:40:00",249017,0.083,127.3,19.5,100,0,0,858.3477,0,-4.308,3.114,179,22.24,21.26,0.2273725,0,48.65,54.35,32.96,34.36
"2016-08-16 20:50:00",249018,0.167,158.9,19.46,100,0,0,858.116,0,-4.316,3.115,188,22.24,21.27,0.4736926,0,48.59,54.41,32.95,34.37
"2016-08-16 21:00:00",249019,0.267,49.03,19.33,100,0,0,857.9707,0,-4.467,3.116,186,22.24,21.29,0.7920141,0,48.65,54.41,32.96,34.37
"2016-08-16 21:10:00",249020,0.023,253.4,19.34,100,0,0,857.8022,0,-4.467,3.116,187,22.23,21.29,0.6896964,0,48.65,54.46,32.96,34.38
"2016-08-16 21:20:00",249021,0,0,19.35,100,0.01965142,0,857.8022,0,-4.419,3.116,179,22.15,21.28,0.4395868,0.161,48.65,54.52,32.96,34.4
"2016-08-16 21:30:00",249022,0.023,166.8,19.31,100,0,0,857.8022,0,-4.443,3.116,193,22.15,21.28,0.2273725,0,48.65,54.58,32.96,34.41
"2016-08-16 21:40:00",249023,0.044,126.7,19.33,100,0,0,857.8022,0,-4.419,3.116,174,22.15,21.28,0.2690574,0,48.65,54.58,32.96,34.41
"2016-08-16 21:50:00",249024,0.311,136,19.18,100,0,0,857.798,0,-4.323,3.116,174,22.15,21.28,0.2273725,0,48.59,54.63,32.95,34.42
"2016-08-16 22:00:00",249025,0.271,128.5,19.14,100,0,0,857.5641,0,-4.347,3.116,176,22.15,21.28,0.231162,0,48.65,54.69,32.96,34.44
"2016-08-16 22:10:00",249026,0.208,115.9,19.17,100,0,0,857.4968,0,-4.22,3.115,184,22.11,21.28,0.2538992,0,48.65,54.63,32.96,34.42
"2016-08-16 22:20:00",249027,0.498,78.64,19.02,100,0,0,857.5305,0,-4.275,3.116,187,22.03,21.29,0.2917947,0,48.65,54.69,32.96,34.44
"2016-08-16 22:30:00",249028,0.276,57.32,19.01,100,0,0,857.5346,0,-4.219,3.115,200,22.05,21.3,0.4661135,0,48.65,54.69,32.96,34.44
"2016-08-16 22:40:00",249029,0.043,162.1,18.99,100,0,0,857.5305,0,-4.251,3.116,196,22.06,21.34,0.644222,0,48.65,54.75,32.96,34.45
"2016-08-16 22:50:00",249030,0.078,355.7,18.86,100,0,0,857.3073,0,-4.076,3.115,204,22.03,21.35,0.6821174,0,48.59,54.8,32.95,34.46
"2016-08-16 23:00:00",249031,0.051,189.8,18.86,100,0,0,857.3009,0,-4.148,3.115,198,22.02,21.36,0.553273,0,48.59,54.8,32.95,34.46
"2016-08-16 23:10:00",249032,0.171,39.93,18.87,100,0,0,857.2968,0,-3.845,3.113,206,22,21.37,0.3410587,0,48.65,54.8,32.96,34.46
"2016-08-16 23:20:00",249033,0.389,357.7,18.84,100,0,0,857.3009,0,-3.742,3.112,210,21.98,21.37,0.2273725,0,48.65,54.86,32.96,34.48
"2016-08-16 23:30:00",249034,0.357,246.2,18.86,100,0,0,857.3094,0,-3.973,3.114,205,21.98,21.37,0.2273725,0,48.65,54.86,32.96,34.48
"2016-08-16 23:40:00",249035,0.203,284.4,18.81,100,0,0,857.2988,0,-3.726,3.113,213,21.98,21.36,0.1440025,0,48.65,54.86,32.96,34.48
"2016-08-16 23:50:00",249036,0.315,348.9,18.61,100,0,0,857.2988,0,-3.288,3.109,232,22.01,21.37,0.3372692,0,48.65,54.92,32.96,34.49
